Time,TemperatureF,DewpointF,PressureIn,WindDirection,WindDirectionDegrees,WindSpeedMPH,WindSpeedGustMPH,Humidity,HourlyPrecipIn,Conditions,Clouds,dailyrainin,SoftwareType,DateUTC
2013-10-05 00:03:00,30.5,25.4,30.22,NW,315,0.0,0.0,81,0.00,,,0.00,WUHU216HW,2013-10-04 22:03:00,
2013-10-05 00:08:00,30.3,25.2,30.22,WNW,293,0.0,0.0,81,0.00,,,0.00,WUHU216HW,2013-10-04 22:08:00,
2013-10-05 00:13:00,30.0,24.9,30.22,WNW,293,0.0,0.0,81,0.00,,,0.00,WUHU216HW,2013-10-04 22:13:00,
2013-10-05 00:18:00,29.8,25.0,30.21,WNW,293,0.0,0.0,82,0.00,,,0.00,WUHU216HW,2013-10-04 22:18:00,
2013-10-05 00:23:00,30.0,25.1,30.21,West,270,0.0,0.0,82,0.00,,,0.00,WUHU216HW,2013-10-04 22:23:00,
2013-10-05 00:28:00,30.3,25.5,30.21,West,270,0.0,0.0,82,0.00,,,0.00,WUHU216HW,2013-10-04 22:28:00,
2013-10-05 00:33:00,30.2,25.3,30.21,West,270,0.0,0.0,82,0.00,,,0.00,WUHU216HW,2013-10-04 22:33:00,
2013-10-05 00:38:00,30.2,25.3,30.22,West,270,0.0,0.0,82,0.00,,,0.00,WUHU216HW,2013-10-04 22:38:00,
2013-10-05 00:43:00,30.0,25.1,30.21,West,270,0.0,0.0,82,0.00,,,0.00,WUHU216HW,2013-10-04 22:43:00,
2013-10-05 00:48:00,30.0,25.1,30.22,WNW,293,0.0,0.0,82,0.00,,,0.00,WUHU216HW,2013-10-04 22:48:00,
2013-10-05 00:53:00,30.0,25.4,30.21,West,270,0.0,0.0,83,0.00,,,0.00,WUHU216HW,2013-10-04 22:53:00,
2013-10-05 00:58:00,30.0,25.4,30.21,West,270,0.0,0.0,83,0.00,,,0.00,WUHU216HW,2013-10-04 22:58:00,
2013-10-05 01:03:00,30.0,25.4,30.21,West,270,0.0,0.0,83,0.00,,,0.00,WUHU216HW,2013-10-04 23:03:00,
2013-10-05 01:08:00,30.0,25.4,30.21,West,270,0.0,0.0,83,0.00,,,0.00,WUHU216HW,2013-10-04 23:08:00,
2013-10-05 01:13:00,30.0,25.6,30.21,West,270,0.0,0.0,83,0.00,,,0.00,WUHU216HW,2013-10-04 23:13:00,
2013-10-05 01:18:00,30.0,25.4,30.20,West,270,0.0,0.0,83,0.00,,,0.00,WUHU216HW,2013-10-04 23:18:00,
2013-10-05 01:23:00,29.8,25.3,30.20,West,270,0.0,0.0,83,0.00,,,0.00,WUHU216HW,2013-10-04 23:23:00,
2013-10-05 01:28:00,29.8,25.3,30.20,West,270,0.0,0.0,83,0.00,,,0.00,WUHU216HW,2013-10-04 23:28:00,
2013-10-05 01:33:00,29.6,25.1,30.21,West,270,0.0,0.0,83,0.00,,,0.00,WUHU216HW,2013-10-04 23:33:00,
2013-10-05 01:38:00,29.6,25.1,30.21,WNW,293,0.0,0.0,83,0.00,,,0.00,WUHU216HW,2013-10-04 23:38:00,
2013-10-05 01:43:00,29.4,24.9,30.21,WNW,293,0.0,0.0,83,0.00,,,0.00,WUHU216HW,2013-10-04 23:43:00,
2013-10-05 01:48:00,29.3,24.7,30.20,WNW,293,0.0,0.0,83,0.00,,,0.00,WUHU216HW,2013-10-04 23:48:00,
2013-10-05 01:53:00,29.1,24.8,30.21,West,270,0.0,0.0,84,0.00,,,0.00,WUHU216HW,2013-10-04 23:53:00,
2013-10-05 01:58:00,29.3,24.8,30.21,West,270,0.0,0.0,84,0.00,,,0.00,WUHU216HW,2013-10-04 23:58:00,
2013-10-05 02:03:00,29.3,25.0,30.21,WNW,293,0.0,0.0,84,0.00,,,0.00,WUHU216HW,2013-10-05 00:03:00,
2013-10-05 02:08:00,29.1,24.8,30.20,West,270,0.0,0.0,84,0.00,,,0.00,WUHU216HW,2013-10-05 00:08:00,
2013-10-05 02:13:00,29.3,25.0,30.21,West,270,0.0,0.0,84,0.00,,,0.00,WUHU216HW,2013-10-05 00:13:00,
2013-10-05 02:18:00,29.4,25.2,30.21,West,270,0.0,0.0,84,0.00,,,0.00,WUHU216HW,2013-10-05 00:18:00,
2013-10-05 02:23:00,29.3,25.0,30.20,NW,315,0.0,0.0,84,0.00,,,0.00,WUHU216HW,2013-10-05 00:23:00,
2013-10-05 02:28:00,29.3,25.0,30.20,WNW,293,0.0,0.0,84,0.00,,,0.00,WUHU216HW,2013-10-05 00:28:00,
2013-10-05 02:33:00,29.3,25.0,30.20,SW,225,0.0,0.0,84,0.00,,,0.00,WUHU216HW,2013-10-05 00:33:00,
2013-10-05 02:38:00,29.1,24.8,30.20,WNW,293,0.0,0.0,84,0.00,,,0.00,WUHU216HW,2013-10-05 00:38:00,
2013-10-05 02:43:00,29.1,24.8,30.20,WNW,293,0.0,0.0,84,0.00,,,0.00,WUHU216HW,2013-10-05 00:43:00,
2013-10-05 02:48:00,28.9,24.6,30.20,West,270,0.0,0.0,84,0.00,,,0.00,WUHU216HW,2013-10-05 00:48:00,
2013-10-05 02:53:00,28.9,24.9,30.19,West,270,0.0,0.0,85,0.00,,,0.00,WUHU216HW,2013-10-05 00:53:00,
2013-10-05 02:58:00,28.9,24.9,30.19,WNW,293,0.0,0.0,85,0.00,,,0.00,WUHU216HW,2013-10-05 00:58:00,
2013-10-05 03:03:00,28.9,24.9,30.18,West,270,0.0,0.0,85,0.00,,,0.00,WUHU216HW,2013-10-05 01:03:00,
2013-10-05 03:08:00,29.1,25.1,30.18,West,270,0.0,0.0,85,0.00,,,0.00,WUHU216HW,2013-10-05 01:08:00,
2013-10-05 03:13:00,29.1,25.1,30.19,West,270,0.0,0.0,85,0.00,,,0.00,WUHU216HW,2013-10-05 01:13:00,
2013-10-05 03:18:00,28.7,24.8,30.18,West,270,0.0,0.0,85,0.00,,,0.00,WUHU216HW,2013-10-05 01:18:00,
2013-10-05 03:23:00,28.7,24.8,30.18,West,270,0.0,0.0,85,0.00,,,0.00,WUHU216HW,2013-10-05 01:23:00,
2013-10-05 03:28:00,28.5,24.6,30.18,West,270,0.0,0.0,85,0.00,,,0.00,WUHU216HW,2013-10-05 01:28:00,
2013-10-05 03:33:00,28.5,24.6,30.18,West,270,0.0,0.0,85,0.00,,,0.00,WUHU216HW,2013-10-05 01:33:00,
2013-10-05 03:38:00,28.2,24.2,30.18,West,270,0.0,0.0,85,0.00,,,0.00,WUHU216HW,2013-10-05 01:38:00,
2013-10-05 03:43:00,28.2,24.2,30.17,West,270,0.0,0.0,85,0.00,,,0.00,WUHU216HW,2013-10-05 01:43:00,
2013-10-05 03:48:00,28.0,24.0,30.18,WNW,293,0.0,0.0,85,0.00,,,0.00,WUHU216HW,2013-10-05 01:48:00,
2013-10-05 03:53:00,28.0,24.0,30.18,West,270,0.0,0.0,85,0.00,,,0.00,WUHU216HW,2013-10-05 01:53:00,
2013-10-05 03:58:00,27.6,23.7,30.18,West,270,0.0,0.0,85,0.00,,,0.00,WUHU216HW,2013-10-05 01:58:00,
2013-10-05 04:03:00,27.6,23.7,30.17,West,270,0.0,0.0,85,0.00,,,0.00,WUHU216HW,2013-10-05 02:03:00,
2013-10-05 04:08:00,27.6,23.7,30.17,West,270,0.0,0.0,85,0.00,,,0.00,WUHU216HW,2013-10-05 02:08:00,
2013-10-05 04:13:00,27.5,23.5,30.17,West,270,0.0,0.0,85,0.00,,,0.00,WUHU216HW,2013-10-05 02:13:00,
2013-10-05 04:18:00,27.5,23.5,30.17,West,270,0.0,0.0,85,0.00,,,0.00,WUHU216HW,2013-10-05 02:18:00,
2013-10-05 04:23:00,27.3,23.3,30.17,West,270,0.0,0.0,85,0.00,,,0.00,WUHU216HW,2013-10-05 02:23:00,
2013-10-05 04:28:00,27.5,23.5,30.17,West,270,0.0,0.0,85,0.00,,,0.00,WUHU216HW,2013-10-05 02:28:00,
2013-10-05 04:33:00,27.8,24.1,30.17,West,270,0.0,0.0,86,0.00,,,0.00,WUHU216HW,2013-10-05 02:33:00,
2013-10-05 04:38:00,28.0,24.3,30.17,WSW,248,0.0,0.0,86,0.00,,,0.00,WUHU216HW,2013-10-05 02:38:00,
2013-10-05 04:43:00,27.6,24.0,30.16,WNW,293,0.0,0.0,86,0.00,,,0.00,WUHU216HW,2013-10-05 02:43:00,
2013-10-05 04:48:00,27.6,24.0,30.16,NW,315,0.0,0.0,86,0.00,,,0.00,WUHU216HW,2013-10-05 02:48:00,
2013-10-05 04:53:00,27.5,24.0,30.15,WNW,293,0.0,0.0,86,0.00,,,0.00,WUHU216HW,2013-10-05 02:53:00,
2013-10-05 04:58:00,27.5,23.8,30.16,WNW,293,0.0,0.0,86,0.00,,,0.00,WUHU216HW,2013-10-05 02:58:00,
2013-10-05 05:03:00,27.3,23.6,30.16,WNW,293,0.0,0.0,86,0.00,,,0.00,WUHU216HW,2013-10-05 03:03:00,
2013-10-05 05:08:00,27.5,23.8,30.15,West,270,0.0,0.0,86,0.00,,,0.00,WUHU216HW,2013-10-05 03:08:00,
2013-10-05 05:13:00,27.6,24.0,30.16,West,270,0.0,0.0,86,0.00,,,0.00,WUHU216HW,2013-10-05 03:13:00,
2013-10-05 05:18:00,27.5,23.8,30.15,West,270,0.0,0.0,86,0.00,,,0.00,WUHU216HW,2013-10-05 03:18:00,
2013-10-05 05:23:00,27.3,23.6,30.15,West,270,0.0,0.0,86,0.00,,,0.00,WUHU216HW,2013-10-05 03:23:00,
2013-10-05 05:28:00,27.1,23.4,30.16,West,270,0.0,0.0,86,0.00,,,0.00,WUHU216HW,2013-10-05 03:28:00,
2013-10-05 05:33:00,27.1,23.4,30.15,West,270,0.0,0.0,86,0.00,,,0.00,WUHU216HW,2013-10-05 03:33:00,
2013-10-05 05:38:00,27.1,23.4,30.15,WNW,293,0.0,0.0,86,0.00,,,0.00,WUHU216HW,2013-10-05 03:38:00,
2013-10-05 05:43:00,27.1,23.4,30.15,West,270,0.0,0.0,86,0.00,,,0.00,WUHU216HW,2013-10-05 03:43:00,
2013-10-05 05:48:00,26.9,23.4,30.15,WNW,293,0.0,0.0,86,0.00,,,0.00,WUHU216HW,2013-10-05 03:48:00,
2013-10-05 05:53:00,27.1,23.4,30.14,West,270,0.0,0.0,86,0.00,,,0.00,WUHU216HW,2013-10-05 03:53:00,
2013-10-05 05:58:00,27.1,23.4,30.14,West,270,0.0,0.0,86,0.00,,,0.00,WUHU216HW,2013-10-05 03:58:00,
2013-10-05 06:01:00,27.1,23.4,30.14,West,270,0.0,0.0,86,0.00,,,0.00,WUHU216HW,2013-10-05 04:01:00,
2013-10-05 06:02:00,27.1,23.6,30.14,West,270,0.0,0.0,86,0.00,,,0.00,WUHU216HW,2013-10-05 04:02:00,
2013-10-05 06:07:00,27.5,24.1,30.14,West,270,0.0,0.0,87,0.00,,,0.00,WUHU216HW,2013-10-05 04:07:00,
2013-10-05 06:12:00,27.3,23.6,30.14,West,270,0.0,0.0,86,0.00,,,0.00,WUHU216HW,2013-10-05 04:12:00,
2013-10-05 06:17:00,27.3,23.6,30.14,West,270,0.0,0.0,86,0.00,,,0.00,WUHU216HW,2013-10-05 04:17:00,
2013-10-05 06:22:00,27.3,23.6,30.14,West,270,0.0,0.0,86,0.00,,,0.00,WUHU216HW,2013-10-05 04:22:00,
2013-10-05 06:27:00,27.1,23.4,30.14,West,270,0.0,0.0,86,0.00,,,0.00,WUHU216HW,2013-10-05 04:27:00,
2013-10-05 06:32:00,27.3,23.4,30.14,West,270,0.0,0.0,86,0.00,,,0.00,WUHU216HW,2013-10-05 04:32:00,
2013-10-05 06:37:00,27.1,23.4,30.14,WNW,293,0.0,0.0,86,0.00,,,0.00,WUHU216HW,2013-10-05 04:37:00,
2013-10-05 06:42:00,27.1,23.4,30.15,West,270,0.0,0.0,86,0.00,,,0.00,WUHU216HW,2013-10-05 04:42:00,
2013-10-05 06:47:00,27.3,23.6,30.15,WSW,248,0.0,0.0,86,0.00,,,0.00,WUHU216HW,2013-10-05 04:47:00,
2013-10-05 06:52:00,27.3,23.6,30.15,West,270,0.0,0.0,86,0.00,,,0.00,WUHU216HW,2013-10-05 04:52:00,
2013-10-05 06:57:00,27.1,23.4,30.15,WNW,293,0.0,0.0,86,0.00,,,0.00,WUHU216HW,2013-10-05 04:57:00,
2013-10-05 07:02:00,26.9,23.4,30.16,WNW,293,0.0,0.0,86,0.00,,,0.00,WUHU216HW,2013-10-05 05:02:00,
2013-10-05 07:07:00,27.6,24.2,30.16,West,270,0.0,0.0,87,0.00,,,0.00,WUHU216HW,2013-10-05 05:07:00,
2013-10-05 07:12:00,27.6,24.2,30.15,West,270,0.0,0.0,87,0.00,,,0.00,WUHU216HW,2013-10-05 05:12:00,
2013-10-05 07:17:00,28.0,24.6,30.16,West,270,0.0,0.0,87,0.00,,,0.00,WUHU216HW,2013-10-05 05:17:00,
2013-10-05 07:22:00,28.0,24.6,30.16,West,270,0.0,0.0,87,0.00,,,0.00,WUHU216HW,2013-10-05 05:22:00,
2013-10-05 07:27:00,28.2,24.8,30.16,North,0,0.0,0.0,87,0.00,,,0.00,WUHU216HW,2013-10-05 05:27:00,
2013-10-05 07:32:00,28.4,25.0,30.17,East,90,0.0,0.0,87,0.00,,,0.00,WUHU216HW,2013-10-05 05:32:00,
2013-10-05 07:37:00,28.5,25.1,30.17,East,90,0.0,0.0,87,0.00,,,0.00,WUHU216HW,2013-10-05 05:37:00,
2013-10-05 07:42:00,28.9,25.3,30.17,NNW,338,0.0,0.0,87,0.00,,,0.00,WUHU216HW,2013-10-05 05:42:00,
2013-10-05 07:47:00,29.3,25.9,30.16,NNW,338,0.0,0.0,87,0.00,,,0.00,WUHU216HW,2013-10-05 05:47:00,
2013-10-05 07:52:00,29.4,26.0,30.16,NNE,23,0.0,0.0,87,0.00,,,0.00,WUHU216HW,2013-10-05 05:52:00,
2013-10-05 07:57:00,30.0,26.6,30.16,North,0,0.0,0.0,87,0.00,,,0.00,WUHU216HW,2013-10-05 05:57:00,
2013-10-05 08:02:00,30.7,27.3,30.16,NE,45,0.0,0.0,87,0.00,,,0.00,WUHU216HW,2013-10-05 06:02:00,
2013-10-05 08:07:00,30.9,27.5,30.16,NW,315,0.0,0.0,87,0.00,,,0.00,WUHU216HW,2013-10-05 06:07:00,
2013-10-05 08:12:00,31.8,28.4,30.16,NNW,338,0.0,0.0,87,0.00,,,0.00,WUHU216HW,2013-10-05 06:12:00,
2013-10-05 08:17:00,32.1,28.4,30.17,NE,45,0.0,0.0,86,0.00,,,0.00,WUHU216HW,2013-10-05 06:17:00,
2013-10-05 08:22:00,32.5,29.1,30.17,NW,315,0.0,0.0,87,0.00,,,0.00,WUHU216HW,2013-10-05 06:22:00,
2013-10-05 08:27:00,32.9,29.1,30.17,NNE,23,0.0,0.0,86,0.00,,,0.00,WUHU216HW,2013-10-05 06:27:00,
2013-10-05 08:32:00,33.4,29.6,30.17,NNE,23,0.0,0.0,86,0.00,,,0.00,WUHU216HW,2013-10-05 06:32:00,
2013-10-05 08:37:00,33.9,29.6,30.17,ESE,113,0.0,1.1,85,0.00,,,0.00,WUHU216HW,2013-10-05 06:37:00,
2013-10-05 08:42:00,34.3,29.9,30.17,East,90,0.0,1.1,84,0.00,,,0.00,WUHU216HW,2013-10-05 06:42:00,
2013-10-05 08:47:00,34.8,30.1,30.17,ESE,113,0.0,0.0,83,0.00,,,0.00,WUHU216HW,2013-10-05 06:47:00,
2013-10-05 08:52:00,35.2,30.5,30.17,NE,45,0.0,1.1,83,0.00,,,0.00,WUHU216HW,2013-10-05 06:52:00,
2013-10-05 08:57:00,35.7,30.4,30.17,East,90,0.0,2.0,81,0.00,,,0.00,WUHU216HW,2013-10-05 06:57:00,
2013-10-05 09:02:00,36.5,30.9,30.17,East,90,0.0,2.0,80,0.00,,,0.00,WUHU216HW,2013-10-05 07:02:00,
2013-10-05 09:07:00,36.8,30.9,30.15,ENE,68,0.0,3.5,79,0.00,,,0.00,WUHU216HW,2013-10-05 07:07:00,
2013-10-05 09:12:00,37.2,30.9,30.15,East,90,3.8,3.8,78,0.00,,,0.00,WUHU216HW,2013-10-05 07:12:00,
2013-10-05 09:17:00,37.9,31.3,30.15,North,0,0.0,3.8,77,0.00,,,0.00,WUHU216HW,2013-10-05 07:17:00,
2013-10-05 09:22:00,38.3,31.2,30.14,ENE,68,0.0,0.0,76,0.00,,,0.00,WUHU216HW,2013-10-05 07:22:00,
2013-10-05 09:27:00,38.8,31.5,30.15,ESE,113,0.0,0.0,75,0.00,,,0.00,WUHU216HW,2013-10-05 07:27:00,
2013-10-05 09:32:00,39.5,31.9,30.15,ESE,113,0.8,0.8,74,0.00,,,0.00,WUHU216HW,2013-10-05 07:32:00,
2013-10-05 09:37:00,40.6,32.6,30.15,NE,45,0.0,0.8,73,0.00,,,0.00,WUHU216HW,2013-10-05 07:37:00,
2013-10-05 09:42:00,41.9,33.2,30.15,ESE,113,0.6,0.6,71,0.00,,,0.00,WUHU216HW,2013-10-05 07:42:00,
2013-10-05 09:47:00,43.1,33.7,30.15,North,0,0.0,0.6,69,0.00,,,0.00,WUHU216HW,2013-10-05 07:47:00,
2013-10-05 09:52:00,44.2,33.9,30.14,ENE,68,0.0,5.1,67,0.00,,,0.00,WUHU216HW,2013-10-05 07:52:00,
2013-10-05 09:57:00,45.1,34.4,30.14,SSE,158,0.0,5.1,66,0.00,,,0.00,WUHU216HW,2013-10-05 07:57:00,
2013-10-05 10:02:00,46.0,34.5,30.14,ENE,68,0.0,3.1,65,0.00,,,0.00,WUHU216HW,2013-10-05 08:02:00,
2013-10-05 10:07:00,46.2,34.2,30.14,ESE,113,1.5,3.1,63,0.00,,,0.00,WUHU216HW,2013-10-05 08:07:00,
2013-10-05 10:12:00,47.3,34.9,30.14,ESE,113,2.0,2.9,63,0.00,,,0.00,WUHU216HW,2013-10-05 08:12:00,
2013-10-05 10:17:00,48.3,35.6,30.14,NNE,23,0.0,4.9,61,0.00,,,0.00,WUHU216HW,2013-10-05 08:17:00,
2013-10-05 10:22:00,48.9,35.7,30.14,NNE,23,0.0,4.9,60,0.00,,,0.00,WUHU216HW,2013-10-05 08:22:00,
2013-10-05 10:27:00,49.8,36.0,30.14,ESE,113,0.8,4.9,59,0.00,,,0.00,WUHU216HW,2013-10-05 08:27:00,
2013-10-05 10:32:00,50.1,35.4,30.13,East,90,1.1,4.9,57,0.00,,,0.00,WUHU216HW,2013-10-05 08:32:00,
2013-10-05 10:37:00,50.1,35.6,30.13,ENE,68,0.8,4.4,57,0.00,,,0.00,WUHU216HW,2013-10-05 08:37:00,
2013-10-05 10:42:00,50.7,35.5,30.13,North,0,0.0,3.5,56,0.00,,,0.00,WUHU216HW,2013-10-05 08:42:00,
2013-10-05 10:47:00,50.7,35.5,30.13,North,0,0.0,4.4,56,0.00,,,0.00,WUHU216HW,2013-10-05 08:47:00,
2013-10-05 10:52:00,50.9,35.2,30.13,East,90,0.0,5.1,55,0.00,,,0.00,WUHU216HW,2013-10-05 08:52:00,
2013-10-05 10:57:00,51.6,35.8,30.13,SSE,158,0.0,5.1,55,0.00,,,0.00,WUHU216HW,2013-10-05 08:57:00,
2013-10-05 11:02:00,53.7,37.5,30.13,West,270,0.0,3.5,54,0.00,,,0.00,WUHU216HW,2013-10-05 09:02:00,
2013-10-05 11:07:00,54.6,37.7,30.12,East,90,0.0,3.5,53,0.00,,,0.00,WUHU216HW,2013-10-05 09:07:00,
2013-10-05 11:12:00,55.5,38.1,30.12,SE,135,1.7,4.9,52,0.00,,,0.00,WUHU216HW,2013-10-05 09:12:00,
2013-10-05 11:17:00,54.1,36.3,30.12,SSE,158,0.0,4.9,51,0.00,,,0.00,WUHU216HW,2013-10-05 09:17:00,
2013-10-05 11:22:00,54.6,36.3,30.12,ESE,113,2.2,4.4,50,0.00,,,0.00,WUHU216HW,2013-10-05 09:22:00,
2013-10-05 11:27:00,54.6,35.8,30.13,ESE,113,2.2,3.8,49,0.00,,,0.00,WUHU216HW,2013-10-05 09:27:00,
2013-10-05 11:32:00,55.2,36.3,30.13,SE,135,3.3,3.3,49,0.00,,,0.00,WUHU216HW,2013-10-05 09:32:00,
2013-10-05 11:37:00,56.1,37.1,30.13,SSE,158,0.0,3.8,49,0.00,,,0.00,WUHU216HW,2013-10-05 09:37:00,
2013-10-05 11:42:00,56.4,36.4,30.13,East,90,2.0,3.8,47,0.00,,,0.00,WUHU216HW,2013-10-05 09:42:00,
2013-10-05 11:47:00,56.4,35.8,30.12,SE,135,9.6,10.2,46,0.00,,,0.00,WUHU216HW,2013-10-05 09:47:00,
2013-10-05 11:52:00,56.6,36.0,30.13,South,180,6.2,10.2,46,0.00,,,0.00,WUHU216HW,2013-10-05 09:52:00,
2013-10-05 11:57:00,57.5,36.2,30.13,South,180,8.5,8.9,44,0.00,,,0.00,WUHU216HW,2013-10-05 09:57:00,
2013-10-05 12:02:00,58.2,36.3,30.14,East,90,0.0,8.5,44,0.00,,,0.00,WUHU216HW,2013-10-05 10:02:00,
2013-10-05 12:07:00,58.2,35.7,30.14,North,0,0.0,10.5,43,0.00,,,0.00,WUHU216HW,2013-10-05 10:07:00,
2013-10-05 12:12:00,59.1,36.5,30.13,NE,45,0.0,10.5,43,0.00,,,0.00,WUHU216HW,2013-10-05 10:12:00,
2013-10-05 12:17:00,59.0,36.0,30.13,ESE,113,9.3,9.3,42,0.00,,,0.00,WUHU216HW,2013-10-05 10:17:00,
2013-10-05 12:22:00,59.0,36.4,30.12,SSE,158,0.0,9.3,43,0.00,,,0.00,WUHU216HW,2013-10-05 10:22:00,
2013-10-05 12:27:00,59.5,36.3,30.12,East,90,1.7,9.6,41,0.00,,,0.00,WUHU216HW,2013-10-05 10:27:00,
2013-10-05 12:32:00,59.5,36.3,30.12,SE,135,4.2,9.6,42,0.00,,,0.00,WUHU216HW,2013-10-05 10:32:00,
2013-10-05 12:37:00,59.7,35.9,30.12,SSE,158,2.9,6.0,41,0.00,,,0.00,WUHU216HW,2013-10-05 10:37:00,
2013-10-05 12:42:00,59.7,36.5,30.11,SE,135,3.1,10.0,42,0.00,,,0.00,WUHU216HW,2013-10-05 10:42:00,
2013-10-05 12:47:00,60.0,36.9,30.11,SE,135,0.6,10.0,41,0.00,,,0.00,WUHU216HW,2013-10-05 10:47:00,
2013-10-05 12:52:00,61.5,36.9,30.11,East,90,1.5,8.9,40,0.00,,,0.00,WUHU216HW,2013-10-05 10:52:00,
2013-10-05 12:57:00,60.4,35.9,30.11,SE,135,4.9,8.9,40,0.00,,,0.00,WUHU216HW,2013-10-05 10:57:00,
2013-10-05 13:02:00,59.5,35.1,30.10,ESE,113,5.1,7.6,40,0.00,,,0.00,WUHU216HW,2013-10-05 11:02:00,
2013-10-05 13:07:00,60.4,35.9,30.09,SE,135,3.5,7.8,40,0.00,,,0.00,WUHU216HW,2013-10-05 11:07:00,
2013-10-05 13:12:00,60.4,36.5,30.09,ENE,68,0.6,7.8,40,0.00,,,0.00,WUHU216HW,2013-10-05 11:12:00,
2013-10-05 13:17:00,60.6,36.1,30.09,ESE,113,6.4,6.4,40,0.00,,,0.00,WUHU216HW,2013-10-05 11:17:00,
2013-10-05 13:22:00,60.6,36.1,30.09,SE,135,3.1,11.1,40,0.00,,,0.00,WUHU216HW,2013-10-05 11:22:00,
2013-10-05 13:27:00,60.9,35.7,30.09,SE,135,8.0,11.1,39,0.00,,,0.00,WUHU216HW,2013-10-05 11:27:00,
2013-10-05 13:32:00,60.9,36.4,30.08,ENE,68,6.9,9.1,40,0.00,,,0.00,WUHU216HW,2013-10-05 11:32:00,
2013-10-05 13:37:00,60.6,35.4,30.08,East,90,4.2,8.2,39,0.00,,,0.00,WUHU216HW,2013-10-05 11:37:00,
2013-10-05 13:42:00,60.9,35.7,30.07,SW,225,0.0,8.2,39,0.00,,,0.00,WUHU216HW,2013-10-05 11:42:00,
2013-10-05 13:47:00,60.9,35.7,30.08,ESE,113,1.5,8.0,39,0.00,,,0.00,WUHU216HW,2013-10-05 11:47:00,
2013-10-05 13:52:00,61.5,36.2,30.07,SE,135,2.0,8.0,39,0.00,,,0.00,WUHU216HW,2013-10-05 11:52:00,
2013-10-05 13:57:00,62.0,36.7,30.08,ESE,113,8.7,8.7,39,0.00,,,0.00,WUHU216HW,2013-10-05 11:57:00,
2013-10-05 14:02:00,62.2,36.1,30.08,East,90,6.4,8.7,38,0.00,,,0.00,WUHU216HW,2013-10-05 12:02:00,
2013-10-05 14:07:00,61.8,36.0,30.08,SE,135,0.0,6.4,38,0.00,,,0.00,WUHU216HW,2013-10-05 12:07:00,
2013-10-05 14:12:00,62.4,34.8,30.08,SSE,158,5.3,11.1,37,0.00,,,0.00,WUHU216HW,2013-10-05 12:12:00,
2013-10-05 14:17:00,61.8,35.1,30.08,ESE,113,2.6,11.1,37,0.00,,,0.00,WUHU216HW,2013-10-05 12:17:00,
2013-10-05 14:22:00,62.4,35.6,30.08,ESE,113,8.2,8.2,37,0.00,,,0.00,WUHU216HW,2013-10-05 12:22:00,
2013-10-05 14:27:00,62.4,35.6,30.07,SSW,203,6.0,8.2,37,0.00,,,0.00,WUHU216HW,2013-10-05 12:27:00,
2013-10-05 14:32:00,61.8,35.8,30.08,ESE,113,6.7,6.7,38,0.00,,,0.00,WUHU216HW,2013-10-05 12:32:00,
2013-10-05 14:37:00,63.1,36.2,30.07,ESE,113,6.0,6.7,37,0.00,,,0.00,WUHU216HW,2013-10-05 12:37:00,
2013-10-05 14:42:00,63.1,35.5,30.08,South,180,0.0,7.1,36,0.00,,,0.00,WUHU216HW,2013-10-05 12:42:00,
2013-10-05 14:47:00,62.6,35.7,30.08,SE,135,5.1,7.1,37,0.00,,,0.00,WUHU216HW,2013-10-05 12:47:00,
2013-10-05 14:52:00,62.4,34.8,30.08,SE,135,4.2,5.8,36,0.00,,,0.00,WUHU216HW,2013-10-05 12:52:00,
2013-10-05 14:57:00,62.7,34.5,30.08,ESE,113,3.8,5.1,35,0.00,,,0.00,WUHU216HW,2013-10-05 12:57:00,
2013-10-05 15:02:00,63.3,35.7,30.08,ESE,113,0.0,3.8,36,0.00,,,0.00,WUHU216HW,2013-10-05 13:02:00,
2013-10-05 15:07:00,63.1,35.5,30.09,ESE,113,4.4,4.4,36,0.00,,,0.00,WUHU216HW,2013-10-05 13:07:00,
2013-10-05 15:12:00,62.7,35.9,30.08,ESE,113,5.1,5.1,37,0.00,,,0.00,WUHU216HW,2013-10-05 13:12:00,
2013-10-05 15:17:00,64.0,36.3,30.08,SE,135,0.0,5.8,36,0.00,,,0.00,WUHU216HW,2013-10-05 13:17:00,
2013-10-05 15:22:00,63.6,35.3,30.08,ESE,113,3.1,5.8,35,0.00,,,0.00,WUHU216HW,2013-10-05 13:22:00,
2013-10-05 15:27:00,64.2,36.5,30.07,East,90,0.0,4.4,36,0.00,,,0.00,WUHU216HW,2013-10-05 13:27:00,
2013-10-05 15:32:00,63.6,35.3,30.07,ESE,113,0.0,6.7,35,0.00,,,0.00,WUHU216HW,2013-10-05 13:32:00,
2013-10-05 15:37:00,63.6,35.3,30.07,ESE,113,0.0,8.9,35,0.00,,,0.00,WUHU216HW,2013-10-05 13:37:00,
2013-10-05 15:42:00,61.5,34.0,30.07,East,90,4.2,8.9,36,0.00,,,0.00,WUHU216HW,2013-10-05 13:42:00,
2013-10-05 15:47:00,59.9,33.3,30.07,SE,135,2.4,8.0,37,0.00,,,0.00,WUHU216HW,2013-10-05 13:47:00,
2013-10-05 15:52:00,59.3,32.9,30.07,SSE,158,2.2,4.6,37,0.00,,,0.00,WUHU216HW,2013-10-05 13:52:00,
2013-10-05 15:57:00,59.9,33.3,30.07,ESE,113,2.4,5.3,37,0.00,,,0.00,WUHU216HW,2013-10-05 13:57:00,
2013-10-05 16:02:00,60.0,32.8,30.07,SSE,158,5.1,7.1,36,0.00,,,0.00,WUHU216HW,2013-10-05 14:02:00,
2013-10-05 16:07:00,59.7,33.2,30.07,NNW,338,0.0,7.1,37,0.00,,,0.00,WUHU216HW,2013-10-05 14:07:00,
2013-10-05 16:12:00,59.9,33.3,30.07,ESE,113,2.2,5.3,37,0.00,,,0.00,WUHU216HW,2013-10-05 14:12:00,
2013-10-05 16:17:00,59.3,32.9,30.07,SE,135,2.9,8.5,37,0.00,,,0.00,WUHU216HW,2013-10-05 14:17:00,
2013-10-05 16:22:00,59.1,33.4,30.06,ESE,113,2.2,8.5,38,0.00,,,0.00,WUHU216HW,2013-10-05 14:22:00,
2013-10-05 16:27:00,58.2,32.6,30.06,ESE,113,0.0,7.3,38,0.00,,,0.00,WUHU216HW,2013-10-05 14:27:00,
2013-10-05 16:32:00,57.3,31.8,30.06,ESE,113,0.0,7.3,38,0.00,,,0.00,WUHU216HW,2013-10-05 14:32:00,
2013-10-05 16:37:00,56.4,31.7,30.06,East,90,0.8,5.3,39,0.00,,,0.00,WUHU216HW,2013-10-05 14:37:00,
2013-10-05 16:42:00,55.9,31.9,30.05,SSE,158,1.5,7.3,40,0.00,,,0.00,WUHU216HW,2013-10-05 14:42:00,
2013-10-05 16:47:00,55.5,31.6,30.05,ESE,113,0.0,7.3,40,0.00,,,0.00,WUHU216HW,2013-10-05 14:47:00,
2013-10-05 16:53:00,55.0,31.6,30.05,ESE,113,3.1,3.1,41,0.00,,,0.00,WUHU216HW,2013-10-05 14:53:00,
2013-10-05 16:58:00,54.8,31.5,30.06,ESE,113,0.0,3.1,41,0.00,,,0.00,WUHU216HW,2013-10-05 14:58:00,
2013-10-05 17:03:00,54.5,31.7,30.06,ESE,113,0.0,7.6,42,0.00,,,0.00,WUHU216HW,2013-10-05 15:03:00,
2013-10-05 17:08:00,54.3,31.6,30.06,SSE,158,0.0,7.6,42,0.00,,,0.00,WUHU216HW,2013-10-05 15:08:00,
2013-10-05 17:12:00,54.1,32.0,30.05,NW,315,0.0,2.6,43,0.00,,,0.00,WUHU216HW,2013-10-05 15:12:00,
2013-10-05 17:17:00,53.7,31.6,30.05,ESE,113,1.5,1.5,43,0.00,,,0.00,WUHU216HW,2013-10-05 15:17:00,
2013-10-05 17:23:00,53.4,31.9,30.06,South,180,0.6,4.4,44,0.00,,,0.00,WUHU216HW,2013-10-05 15:23:00,
2013-10-05 17:28:00,53.2,31.7,30.06,SE,135,0.0,4.4,44,0.00,,,0.00,WUHU216HW,2013-10-05 15:28:00,
2013-10-05 17:32:00,52.8,31.9,30.06,SE,135,0.0,0.8,45,0.00,,,0.00,WUHU216HW,2013-10-05 15:32:00,
2013-10-05 17:38:00,52.1,31.8,30.07,SE,135,0.0,0.0,46,0.00,,,0.00,WUHU216HW,2013-10-05 15:38:00,
2013-10-05 17:42:00,51.4,31.8,30.07,ESE,113,0.0,0.0,47,0.00,,,0.00,WUHU216HW,2013-10-05 15:42:00,
2013-10-05 17:48:00,50.7,31.7,30.07,SW,225,0.0,0.0,48,0.00,,,0.00,WUHU216HW,2013-10-05 15:48:00,
2013-10-05 17:53:00,50.1,31.7,30.07,WSW,248,0.0,0.0,49,0.00,,,0.00,WUHU216HW,2013-10-05 15:53:00,
2013-10-05 17:58:00,49.2,31.9,30.07,WNW,293,0.0,0.0,51,0.00,,,0.00,WUHU216HW,2013-10-05 15:58:00,
2013-10-05 18:03:00,48.3,31.0,30.06,WNW,293,0.0,0.0,51,0.00,,,0.00,WUHU216HW,2013-10-05 16:03:00,
2013-10-05 18:08:00,47.4,31.1,30.06,NW,315,0.0,0.0,53,0.00,,,0.00,WUHU216HW,2013-10-05 16:08:00,
2013-10-05 18:13:00,46.7,30.8,30.06,NW,315,0.0,0.0,54,0.00,,,0.00,WUHU216HW,2013-10-05 16:13:00,
2013-10-05 18:18:00,46.2,30.3,30.06,WNW,293,0.0,0.0,54,0.00,,,0.00,WUHU216HW,2013-10-05 16:18:00,
2013-10-05 18:23:00,45.6,30.3,30.06,NNW,338,0.0,0.0,55,0.00,,,0.00,WUHU216HW,2013-10-05 16:23:00,
2013-10-05 18:28:00,45.3,30.4,30.06,NW,315,0.0,0.0,56,0.00,,,0.00,WUHU216HW,2013-10-05 16:28:00,
2013-10-05 18:33:00,44.9,30.1,30.05,WNW,293,0.0,0.0,56,0.00,,,0.00,WUHU216HW,2013-10-05 16:33:00,
2013-10-05 18:38:00,44.6,30.2,30.05,NNW,338,0.0,0.0,57,0.00,,,0.00,WUHU216HW,2013-10-05 16:38:00,
2013-10-05 18:43:00,44.2,30.3,30.05,WNW,293,0.0,0.0,58,0.00,,,0.00,WUHU216HW,2013-10-05 16:43:00,
2013-10-05 18:48:00,43.7,30.4,30.05,WNW,293,0.0,0.0,59,0.00,,,0.00,WUHU216HW,2013-10-05 16:48:00,
2013-10-05 18:53:00,43.3,29.9,30.05,WNW,293,0.0,0.0,59,0.00,,,0.00,WUHU216HW,2013-10-05 16:53:00,
2013-10-05 18:58:00,42.9,29.5,30.05,WNW,293,0.0,0.0,59,0.00,,,0.00,WUHU216HW,2013-10-05 16:58:00,
2013-10-05 19:03:00,42.6,29.6,30.05,WNW,293,0.0,0.0,60,0.00,,,0.00,WUHU216HW,2013-10-05 17:03:00,
2013-10-05 19:08:00,42.6,30.0,30.05,NW,315,0.0,0.0,61,0.00,,,0.00,WUHU216HW,2013-10-05 17:08:00,
2013-10-05 19:13:00,42.6,30.0,30.04,NW,315,0.0,0.0,61,0.00,,,0.00,WUHU216HW,2013-10-05 17:13:00,
2013-10-05 19:18:00,42.6,30.0,30.04,WNW,293,0.0,0.0,61,0.00,,,0.00,WUHU216HW,2013-10-05 17:18:00,
2013-10-05 19:23:00,42.6,30.0,30.04,NW,315,0.0,0.0,61,0.00,,,0.00,WUHU216HW,2013-10-05 17:23:00,
2013-10-05 19:28:00,42.6,30.0,30.04,NNW,338,0.0,0.0,61,0.00,,,0.00,WUHU216HW,2013-10-05 17:28:00,
2013-10-05 19:33:00,42.6,30.4,30.04,NW,315,0.0,0.0,62,0.00,,,0.00,WUHU216HW,2013-10-05 17:33:00,
2013-10-05 19:38:00,42.4,30.2,30.04,North,0,0.0,0.0,62,0.00,,,0.00,WUHU216HW,2013-10-05 17:38:00,
2013-10-05 19:43:00,42.4,30.2,30.04,WNW,293,0.0,0.0,62,0.00,,,0.00,WUHU216HW,2013-10-05 17:43:00,
2013-10-05 19:48:00,42.0,29.9,30.04,WNW,293,0.0,0.0,62,0.00,,,0.00,WUHU216HW,2013-10-05 17:48:00,
2013-10-05 19:53:00,41.9,30.1,30.04,WNW,293,0.0,0.0,63,0.00,,,0.00,WUHU216HW,2013-10-05 17:53:00,
2013-10-05 19:58:00,41.7,30.0,30.04,WNW,293,0.0,0.0,63,0.00,,,0.00,WUHU216HW,2013-10-05 17:58:00,
2013-10-05 20:03:00,41.5,29.8,30.04,WNW,293,0.0,0.0,63,0.00,,,0.00,WUHU216HW,2013-10-05 18:03:00,
2013-10-05 20:08:00,41.5,30.2,30.04,WNW,293,0.0,0.0,64,0.00,,,0.00,WUHU216HW,2013-10-05 18:08:00,
2013-10-05 20:13:00,41.3,30.0,30.04,NW,315,0.0,0.0,64,0.00,,,0.00,WUHU216HW,2013-10-05 18:13:00,
2013-10-05 20:18:00,41.5,30.2,30.05,WNW,293,0.0,0.0,64,0.00,,,0.00,WUHU216HW,2013-10-05 18:18:00,
2013-10-05 20:23:00,41.5,30.2,30.04,NW,315,0.0,0.0,64,0.00,,,0.00,WUHU216HW,2013-10-05 18:23:00,
2013-10-05 20:28:00,41.1,30.2,30.04,NW,315,0.0,0.0,65,0.00,,,0.00,WUHU216HW,2013-10-05 18:28:00,
2013-10-05 20:33:00,41.1,30.2,30.04,NNW,338,0.0,0.0,65,0.00,,,0.00,WUHU216HW,2013-10-05 18:33:00,
2013-10-05 20:38:00,40.8,29.9,30.05,WNW,293,0.0,0.0,65,0.00,,,0.00,WUHU216HW,2013-10-05 18:38:00,
2013-10-05 20:43:00,40.8,30.3,30.05,North,0,0.0,0.0,66,0.00,,,0.00,WUHU216HW,2013-10-05 18:43:00,
2013-10-05 20:48:00,40.8,30.3,30.05,NW,315,0.0,0.0,66,0.00,,,0.00,WUHU216HW,2013-10-05 18:48:00,
2013-10-05 20:53:00,40.8,30.3,30.05,North,0,0.0,0.0,66,0.00,,,0.00,WUHU216HW,2013-10-05 18:53:00,
2013-10-05 20:58:00,40.6,30.5,30.05,NW,315,0.0,0.0,67,0.00,,,0.00,WUHU216HW,2013-10-05 18:58:00,
2013-10-05 21:03:00,40.8,30.6,30.05,NNW,338,0.0,0.0,67,0.00,,,0.00,WUHU216HW,2013-10-05 19:03:00,
2013-10-05 21:08:00,40.6,30.5,30.05,WNW,293,0.0,0.0,67,0.00,,,0.00,WUHU216HW,2013-10-05 19:08:00,
2013-10-05 21:13:00,40.6,30.5,30.05,WNW,293,0.0,0.0,67,0.00,,,0.00,WUHU216HW,2013-10-05 19:13:00,
2013-10-05 21:18:00,40.4,30.7,30.05,NW,315,0.0,0.0,68,0.00,,,0.00,WUHU216HW,2013-10-05 19:18:00,
2013-10-05 21:23:00,40.2,30.5,30.05,NW,315,0.0,0.0,68,0.00,,,0.00,WUHU216HW,2013-10-05 19:23:00,
2013-10-05 21:28:00,40.1,30.3,30.06,NW,315,0.0,0.0,68,0.00,,,0.00,WUHU216HW,2013-10-05 19:28:00,
2013-10-05 21:33:00,40.1,30.3,30.05,WNW,293,0.0,0.0,68,0.00,,,0.00,WUHU216HW,2013-10-05 19:33:00,
2013-10-05 21:38:00,39.9,30.5,30.05,WNW,293,0.0,0.0,69,0.00,,,0.00,WUHU216HW,2013-10-05 19:38:00,
2013-10-05 21:43:00,39.9,30.5,30.05,WNW,293,0.0,0.0,69,0.00,,,0.00,WUHU216HW,2013-10-05 19:43:00,
2013-10-05 21:48:00,40.1,31.1,30.06,NW,315,0.0,0.0,70,0.00,,,0.00,WUHU216HW,2013-10-05 19:48:00,
2013-10-05 21:53:00,40.2,31.2,30.06,NNW,338,0.0,0.0,70,0.00,,,0.00,WUHU216HW,2013-10-05 19:53:00,
2013-10-05 21:58:00,40.6,31.6,30.06,NNW,338,0.0,0.0,70,0.00,,,0.00,WUHU216HW,2013-10-05 19:58:00,
2013-10-05 22:03:00,40.8,31.8,30.06,NNW,338,0.0,0.0,70,0.00,,,0.00,WUHU216HW,2013-10-05 20:03:00,
2013-10-05 22:08:00,40.8,31.8,30.06,NW,315,0.0,0.0,70,0.00,,,0.00,WUHU216HW,2013-10-05 20:08:00,
2013-10-05 22:13:00,41.1,32.5,30.06,NNW,338,0.0,0.0,71,0.00,,,0.00,WUHU216HW,2013-10-05 20:13:00,
2013-10-05 22:18:00,41.3,32.6,30.05,NNW,338,0.0,0.0,71,0.00,,,0.00,WUHU216HW,2013-10-05 20:18:00,
2013-10-05 22:23:00,41.5,32.8,30.05,NNW,338,0.0,0.0,71,0.00,,,0.00,WUHU216HW,2013-10-05 20:23:00,
2013-10-05 22:28:00,41.7,32.7,30.05,North,0,0.0,0.0,70,0.00,,,0.00,WUHU216HW,2013-10-05 20:28:00,
2013-10-05 22:33:00,41.7,32.7,30.05,NNW,338,0.0,0.0,70,0.00,,,0.00,WUHU216HW,2013-10-05 20:33:00,
2013-10-05 22:38:00,41.7,32.7,30.06,NNW,338,0.0,0.0,70,0.00,,,0.00,WUHU216HW,2013-10-05 20:38:00,
2013-10-05 22:43:00,41.5,32.5,30.05,North,0,0.0,0.0,70,0.00,,,0.00,WUHU216HW,2013-10-05 20:43:00,
2013-10-05 22:48:00,41.5,32.5,30.05,WNW,293,0.0,0.0,70,0.00,,,0.00,WUHU216HW,2013-10-05 20:48:00,
2013-10-05 22:53:00,41.3,32.3,30.05,NNW,338,0.0,0.0,70,0.00,,,0.00,WUHU216HW,2013-10-05 20:53:00,
2013-10-05 22:58:00,41.1,32.1,30.05,WNW,293,0.0,0.0,70,0.00,,,0.00,WUHU216HW,2013-10-05 20:58:00,
2013-10-05 23:03:00,41.1,32.1,30.05,NW,315,0.0,0.0,70,0.00,,,0.00,WUHU216HW,2013-10-05 21:03:00,
2013-10-05 23:08:00,41.1,32.1,30.04,NNE,23,0.0,0.0,70,0.00,,,0.00,WUHU216HW,2013-10-05 21:08:00,
2013-10-05 23:13:00,41.1,31.9,30.05,NNW,338,0.0,0.0,69,0.00,,,0.00,WUHU216HW,2013-10-05 21:13:00,
2013-10-05 23:18:00,41.3,31.9,30.05,NNW,338,0.0,0.0,69,0.00,,,0.00,WUHU216HW,2013-10-05 21:18:00,
2013-10-05 23:23:00,41.0,31.6,30.05,West,270,0.0,0.0,69,0.00,,,0.00,WUHU216HW,2013-10-05 21:23:00,
2013-10-05 23:28:00,40.8,31.4,30.05,NW,315,0.0,0.0,69,0.00,,,0.00,WUHU216HW,2013-10-05 21:28:00,
2013-10-05 23:33:00,40.4,31.4,30.05,NW,315,0.0,0.0,70,0.00,,,0.00,WUHU216HW,2013-10-05 21:33:00,
2013-10-05 23:38:00,40.1,31.1,30.05,NW,315,0.0,0.0,70,0.00,,,0.00,WUHU216HW,2013-10-05 21:38:00,
2013-10-05 23:43:00,39.9,30.9,30.05,NNW,338,0.0,0.0,70,0.00,,,0.00,WUHU216HW,2013-10-05 21:43:00,
2013-10-05 23:48:00,39.7,30.7,30.05,NNW,338,0.0,0.0,70,0.00,,,0.00,WUHU216HW,2013-10-05 21:48:00,
2013-10-05 23:53:00,39.3,30.7,30.04,NNW,338,0.0,0.0,71,0.00,,,0.00,WUHU216HW,2013-10-05 21:53:00,
2013-10-05 23:58:00,39.3,30.7,30.04,WNW,293,0.0,0.0,71,0.00,,,0.00,WUHU216HW,2013-10-05 21:58:00,